Orbital Elements at Epoch 2459200.5 (2020-Dec-17.0) TDB
Reference: JPL 13 (heliocentric ecliptic J2000)
Element | Value | Uncertainty (1-sigma) | Units |
e | .1371421224283418 | 4.7996e-08 | |
a | 2.308406009321245 | 1.3551e-08 | au |
q | 1.991826309776591 | 1.1449e-07 | au |
i | 7.047754888203658 | 5.656e-06 | deg |
node | 7.201436954428901 | 3.8953e-05 | deg |
peri | 7.437048382508944 | 4.3087e-05 | deg |
M | 300.8966379750444 | 2.0978e-05 | deg |
tp | 2459410.817982127297 (2021-Jul-15.31798213) | 7.5536e-05 | TDB |
period | 1281.051888957816 3.51 | 1.128e-05 3.088e-08 | d yr |
n | .2810190618374355 | 2.4744e-09 | deg/d |
Q | 2.624985708865899 | 1.5409e-08 | au |
|
| | Orbit Determination Parameters
Additional Information
|